Location: Beuerbach
(48.1459°N, 10.9174°E)
Time: 21:14:07
(UTC+00:00)

NPP - Pass Details

Date: 23 May 2024
Orbit: 826 x 827 km, 98.7° (Epoch: 14 June)

Event Time Altitude Azimuth Distance (km) Brightness Sun altitude
Rises 00:59:23 0° 16° (NNE) 3,378 8.5 -17.2°
Reaches altitude 10° 01:01:45 10° 18° (NNE) 2,440 7.4 -17.0°
Maximum altitude 01:07:10 72° 103° (ESE) 873 3.8 -16.6°
Enters shadow 01:10:34 23° 184° (S) 1,683 4.7 -16.4°
